DECAYED

SL-4 R/B, 65587 (Decayed)

Orbit data source: Space-Track

SL-4 R/B, 65587 was space debris in LEO originally from a launch on Thu, 11 Sep 2025 UTC launched from the Tyuratam Missile And Space Complex (TTMTR). Debris objects in space refer to the collection of defunct objects orbiting the Earth. Examples of debris include non-operational satellites, rocket bodies, and fragments generated from explosions, collisions, or faulty payload assembly.

Not visible in the next 10 days
Identifier
65587, 2025-204B
Orbit
Decayed
Country
Flag of CISCIS
Related business
None
Manufacturer
TsSKB-Progress
Mission
Decayed spacecraft
Bus & Motor
BLOK-I, RD-0980
Mass
~2,350 kg wet, 2,350 kg dry
Launch date (UTC)
2025-09-11 (1 week ago)
Launch vehicle
Unknown
Launch site
Tyuratam Missile And Space Complex (TTMTR)
Object type
Payload
Rocket body
Debris
Shape & HBR
Unknown
Radar Cross Section
RCS unknown

Expand to show TLE details & history
Last TLE update: 6 days ago

TLE from 6 days ago
0 SL-4 R/B
1 65587U 25204B   25254.90075412  .00594588  12038-4  16965-3 0  9997
2 65587  51.6579 238.0772 0024230  75.6431 284.7277 16.25950101    43
Epoch: 2025-09-11T21:37Z
TLE epoch observation values (Epoch: 2025-09-11T21:37:05.155Z)
Latitude
-0.00011°
Longitude
-77.35055°
Altitude
200.196 km
Speed
7.79 km/s
True Right ascension
15h 52m 18s
True Declination
0° 00' 00"
Sunlit
Object was in daylight at epoch
Visualization orbit readout
Latitude
Unknown
Longitude
Unknown
Altitude
Unknown
Speed
Unknown
Apparent Right ascension
Unknown
Apparent Declination
Unknown
Sunlit
N/A
Visualization observer readout
Local Sidereal Time
12:36:29
Azimuth
Unknown
Elevation
Unknown
Doppler factor
Unknown
Orbital elements
Apogee altitude
219.916 km
Perigee altitude
188.019 km
Semi-major axis
6,582.104 km
Eccentricity
0.00242
Inclination
51.6579°
RAAN
238.0772°
Arg. of periapsis
75.6431°
True anomaly
284.45896°
Mean anomaly
284.7277°
Eccentric anomaly
284.59335°
Mean motion
4.0644 °/min
Orbital period
88.57 mins
BSTAR
0.00016965
Loading maneuver chart data...
Computing Atmospheric mass density...
Loading historical data...
Loading historical data...
Loading historical data...
Loading historical data...
Loading historical data...
Loading historical data...
Loading historical data...
Other satellites on launch #204 in the year 2025 (2025-09-11 UTC)

Documentation

Showing up to 5 results
|